[[{"header":{"parameterUnit":"m.s-1","parameterCategory":1,"la1":30.2991,"la2":30.254,"lo1":-89.0895,"lo2":-89.0444,"dy":0.0017,"dx":0.0017,"nx":28,"ny":28,"refTime":"2025-05-21T03:00:00:Z","depth":0,"parameterNumber":2,"parameterNumberName":"U-component_of_WINDS"},"data":[0,0,0,0,0,0,0,0,0,0,0,0,0,0,0,0,0,0,0,0,0,0,0,0,0,0,0,0,0,0,0,0,0,0,0,0,0,0,0,0,0,0,0,0,0,0,0,0,0,0,0,0,0,0,0,0,0,0,4.3082,4.3083,0,4.3183,4.3184,4.3185,4.314,4.3138,4.3135,4.3133,4.3238,4.3243,4.3248,0,0,0,0,0,0,0,0,0,0,0,0,0,4.2851,4.2855,4.3082,4.3083,4.3085,4.3183,4.3184,4.3186,4.3141,4.3138,4.3135,4.3132,4.3236,4.3242,4.3248,0,0,0,0,0,0,0,0,0,0,0,0,0,4.2951,4.2857,4.3082,4.3074,4.3074,4.3183,4.3184,4.3186,4.3141,4.3138,4.3134,4.313,4.3234,4.3241,4.3249,4.3371,0,0,4.3272,4.3276,0,0,0,0,0,0,0,0,4.2946,4.296,4.3074,4.3075,4.3075,4.3145,4.3141,4.3248,4.3142,4.3116,4.3133,4.3129,4.321,4.3219,4.3247,4.3376,4.3381,4.3273,4.3278,4.3281,4.3283,0,0,0,0,0,0,0,4.2939,4.2955,4.3122,4.3076,4.3077,4.3066,4.3076,4.3161,4.3183,4.3118,4.3115,4.3128,4.321,4.3239,4.3249,4.3382,4.3273,4.328,4.3284,4.3287,4.3615,4.3619,0,0,0,0,0,0,4.2932,4.295,4.3119,4.3125,4.3,4.3073,4.3084,4.3127,4.3182,4.3187,4.3131,4.3125,4.3228,4.324,4.3252,4.3397,4.3281,4.3288,4.3293,4.3611,4.3616,4.3621,0,0,0,0,0,0,4.2927,4.2947,4.3115,4.3037,4.3057,4.3081,4.3129,4.3131,4.316,4.3191,4.3195,4.3157,4.3226,4.3241,4.3341,4.34,4.3292,4.3299,4.3606,4.3613,4.3619,4.369,0,0,0,0,0,0,4.2921,4.2946,4.2993,4.3038,4.3062,4.3202,4.3133,4.3135,4.3173,4.3167,4.3217,4.3222,4.3224,4.333,4.3349,4.3409,4.3305,4.3601,4.3609,4.3617,4.3682,4.3697,4.3711,0,0,0,0,0,4.2912,4.3009,4.2995,4.3016,4.312,4.3206,4.3219,4.322,4.3178,4.3225,4.3245,4.322,4.3391,4.3341,4.3362,4.3425,4.3597,4.3607,4.3616,4.3676,4.3694,4.371,0,0,0,0,0,0,4.297,4.3015,4.3,4.3114,4.3157,4.3198,4.3257,4.324,4.3295,4.3287,4.3285,4.3297,4.34,4.3423,4.3366,4.3545,4.3488,4.3502,4.3526,4.3544,4.3558,4.355,4.3311,0,0,0,0,0,4.2996,4.3062,4.3098,4.3195,4.3217,4.3234,4.3271,4.3268,4.3312,4.3329,4.3357,4.34,4.3464,4.3506,4.3566,4.3686,4.3695,4.3739,4.3754,4.3765,4.3777,4.384,4.3859,4.3651,4.3651,4.3651,0,0,4.3051,4.3083,4.3125,4.3207,4.324,4.3307,4.3249,4.3324,4.3374,4.3341,4.3436,4.3458,4.3507,4.3617,4.3666,4.3639,4.3837,4.3777,4.3786,4.3791,4.3851,4.3871,4.3889,4.3657,4.3656,4.3655,0,0,4.3184,4.3216,4.33,4.3333,4.3383,4.3393,4.3413,4.3458,4.3471,4.3566,4.3543,4.3603,4.3713,4.3748,4.378,4.3926,4.3905,4.3946,4.402,4.4082,4.4098,4.4113,4.4163,4.4181,4.3958,4.3958,4.3958,0,4.3245,4.3346,4.3345,4.3421,4.3457,4.3431,4.3515,4.3548,4.3615,4.3641,4.3609,4.3745,4.3776,4.3893,4.3929,4.3957,4.3979,4.394,4.4096,4.4111,4.4124,4.4172,4.4191,4.3963,4.3962,4.3962,4.3961,0,4.3418,4.3488,4.355,4.3614,4.3658,4.3738,4.3749,4.3794,4.3787,4.38,4.3898,4.3934,4.4001,4.4029,4.4023,4.4145,4.4126,4.4095,4.4037,4.4148,4.4193,4.4212,4.3969,4.3968,4.3966,4.3965,0,0,4.3589,4.3652,4.3674,4.3703,4.3755,4.381,4.3889,4.3953,4.399,4.4038,4.4103,4.4196,4.4168,4.4205,4.4203,4.4258,4.4369,4.422,4.4221,4.4245,4.4503,4.4524,4.4545,4.4356,4.4359,4.4362,4.4498,0,4.3725,4.3861,4.3863,4.3989,4.4053,4.4029,4.4097,4.4137,4.4152,4.4208,4.4226,4.4291,4.425,4.4271,4.4324,4.4344,4.442,4.4335,4.4415,4.4418,4.4401,4.4569,4.4592,4.4719,4.4516,4.4519,4.4521,0,4.3901,4.3952,4.4085,4.4127,4.4154,4.4215,4.4274,4.4329,4.4373,4.438,4.4421,4.4411,4.4491,4.4432,4.4541,4.4483,4.4516,4.4531,4.4536,4.4542,4.4475,4.4578,4.4759,4.4777,4.4549,4.4547,4.4545,0,4.4009,4.4113,4.4205,4.423,4.4282,4.4326,4.435,4.439,4.4429,4.448,4.4505,4.4566,4.4599,4.4646,4.4652,4.4609,4.4761,4.4703,4.4768,4.4768,4.48,4.4797,4.4987,4.4825,4.4825,4.4825,4.4824,0,4.4159,4.424,4.4254,4.431,4.4401,4.4402,4.4491,4.4511,4.4548,4.4607,4.4591,4.4647,4.4653,4.4711,4.4717,4.4806,4.4821,4.4829,4.4829,4.4829,4.4828,4.4849,4.484,4.483,4.4829,4.4828,4.4827,0,4.4295,4.4308,4.4406,4.4447,4.446,4.4524,4.4559,4.4613,4.4627,4.4702,4.472,4.4742,4.4809,4.4821,4.4901,4.4904,4.5009,4.5002,4.4994,4.4992,4.5056,4.5049,4.5264,4.5292,4.5114,4.5116,4.5117,0,4.4388,4.445,4.4498,4.4536,4.4562,4.4625,4.4664,4.4667,4.4708,4.4763,4.481,4.4876,4.4928,4.5037,4.506,4.5121,4.5113,4.5185,4.5122,4.512,4.5112,4.5107,4.5112,4.5196,4.5198,4.5199,4.5201,0,4.4552,4.4555,4.4612,4.467,4.4717,4.4763,4.4807,4.484,4.4849,4.4896,4.4965,4.5006,4.5087,4.5152,4.5212,4.5236,4.522,4.522,4.5238,4.5238,4.523,4.5233,4.5024,4.5215,4.5213,4.5212,4.5212,4.5211,4.4668,4.4721,4.4763,4.4826,4.4859,4.4901,4.4952,4.4972,4.5029,4.5095,4.5094,4.5169,4.5211,4.529,4.5319,4.5377,4.5354,4.5381,4.5387,4.5393,4.5398,4.5222,4.5389,4.5388,4.5388,4.5388,4.5387,0,4.4829,4.4855,4.4913,4.4974,4.5024,4.5004,4.5052,4.5094,4.516,4.5201,4.5253,4.5331,4.5394,4.5422,4.5484,4.5525,4.5519,4.5541,4.5537,4.5542,4.5416,4.5393,4.5545,4.5545,4.5544,4.5544,4.5544,4.5544,4.4918,4.5006,4.5015,4.5119,4.5144,4.5217,4.5245,4.5283,4.5315,4.5403,4.5455,4.5473,4.5508,4.5572,4.5629,4.5636,4.5658,4.5683,4.5686,4.5567,4.5551,4.5536,4.5514,4.5689,4.5689,4.5807,4.5808,4.5809]},{"header":{"parameterUnit":"m.s-1","parameterCategory":1,"la1":30.2991,"la2":30.254,"lo1":-89.0895,"lo2":-89.0444,"dy":0.0017,"dx":0.0017,"nx":28,"ny":28,"refTime":"2025-05-21T03:00:00:Z","depth":0,"parameterNumber":3,"parameterNumberName":"V-component_of_WINDS"},"data":[0,0,0,0,0,0,0,0,0,0,0,0,0,0,0,0,0,0,0,0,0,0,0,0,0,0,0,0,0,0,0,0,0,0,0,0,0,0,0,0,0,0,0,0,0,0,0,0,0,0,0,0,0,0,0,0,0,0,4.7627,4.7629,0,4.7768,4.777,4.7771,4.7777,4.7776,4.7774,4.7772,4.7913,4.7918,4.7923,0,0,0,0,0,0,0,0,0,0,0,0,0,4.7359,4.7363,4.7627,4.7629,4.763,4.7768,4.777,4.7772,4.7778,4.7776,4.7774,4.7772,4.7911,4.7917,4.7924,0,0,0,0,0,0,0,0,0,0,0,0,0,4.7485,4.7365,4.7627,4.765,4.7654,4.7767,4.777,4.7772,4.7778,4.7776,4.7773,4.7771,4.7909,4.7917,4.7924,4.8023,0,0,4.7949,4.7952,0,0,0,0,0,0,0,0,4.7478,4.7495,4.7645,4.7649,4.7653,4.7753,4.7727,4.7856,4.7779,4.7731,4.7772,4.7769,4.7861,4.7873,4.7905,4.803,4.8036,4.7949,4.7954,4.7958,4.796,0,0,0,0,0,0,0,4.7469,4.7489,4.7683,4.7647,4.7652,4.7652,4.7667,4.7751,4.7808,4.7735,4.7735,4.7752,4.7863,4.7897,4.7908,4.8038,4.7949,4.7956,4.7961,4.7964,4.825,4.8253,0,0,0,0,0,0,4.7456,4.7481,4.7678,4.7687,4.7557,4.7659,4.7676,4.7723,4.7807,4.7818,4.7754,4.7752,4.7885,4.7899,4.7913,4.8034,4.7957,4.7965,4.7969,4.8247,4.8251,4.8254,0,0,0,0,0,0,4.745,4.7474,4.7672,4.7584,4.761,4.7666,4.7719,4.7727,4.7761,4.7822,4.7832,4.7779,4.7883,4.7902,4.7996,4.8039,4.7968,4.7976,4.8244,4.8248,4.8252,4.8277,0,0,0,0,0,0,4.7443,4.7472,4.7511,4.7585,4.7614,4.7754,4.7722,4.7732,4.7775,4.7774,4.7848,4.7858,4.7883,4.7984,4.8004,4.8048,4.7982,4.824,4.8246,4.8251,4.8272,4.8281,4.8289,0,0,0,0,0,4.7433,4.7511,4.7513,4.7536,4.7665,4.7757,4.7773,4.7802,4.7779,4.7818,4.7857,4.7855,4.8031,4.7994,4.8016,4.8064,4.8238,4.8244,4.825,4.8268,4.8279,4.8289,0,0,0,0,0,0,4.7439,4.7521,4.7524,4.7629,4.7686,4.7758,4.7808,4.7813,4.7876,4.7872,4.7903,4.792,4.8013,4.8048,4.8005,4.8163,4.8131,4.8143,4.8137,4.8148,4.8156,4.8146,4.7988,0,0,0,0,0,4.7452,4.7522,4.7589,4.7675,4.7704,4.7751,4.7792,4.7809,4.7869,4.7893,4.7939,4.7996,4.8064,4.8108,4.8174,4.8277,4.8293,4.8321,4.8329,4.8336,4.8345,4.8401,4.8415,4.8275,4.8275,4.8275,0,0,4.7481,4.7534,4.7576,4.7678,4.7724,4.7794,4.7771,4.7846,4.7898,4.7904,4.7996,4.8031,4.8097,4.8196,4.8242,4.8228,4.8387,4.8344,4.8348,4.8354,4.8409,4.8422,4.8434,4.8279,4.8278,4.8278,0,0,4.7568,4.7616,4.7693,4.774,4.7811,4.7842,4.786,4.7932,4.7956,4.8049,4.8055,4.8116,4.8233,4.8279,4.8318,4.8423,4.8424,4.8444,4.8487,4.8542,4.8553,4.8563,4.86,4.8613,4.8453,4.8453,4.8453,0,4.7594,4.7701,4.7731,4.7807,4.7851,4.7861,4.7938,4.7982,4.807,4.81,4.8083,4.8229,4.8274,4.8384,4.841,4.8441,4.8462,4.8435,4.8549,4.8559,4.8569,4.8605,4.8619,4.8455,4.8454,4.8454,4.8454,0,4.7729,4.7803,4.7856,4.7943,4.7993,4.8069,4.8109,4.8156,4.8169,4.8201,4.8295,4.8349,4.8426,4.8453,4.8466,4.8565,4.8554,4.8543,4.8511,4.8584,4.8618,4.8632,4.8457,4.8457,4.8456,4.8456,0,0,4.7824,4.7927,4.7946,4.7985,4.8064,4.8121,4.8197,4.8274,4.8313,4.8373,4.8437,4.8535,4.8525,4.8569,4.8587,4.8635,4.8715,4.8618,4.862,4.8634,4.8827,4.8835,4.885,4.8716,4.8718,4.872,4.8821,0,4.7921,4.8057,4.8086,4.8204,4.8272,4.8282,4.8348,4.8403,4.8435,4.8496,4.853,4.86,4.8582,4.8609,4.8657,4.8695,4.8754,4.8688,4.8774,4.8777,4.8757,4.8868,4.8877,4.8969,4.8835,4.8837,4.8839,0,4.8051,4.8116,4.824,4.831,4.834,4.8399,4.8471,4.853,4.8592,4.8612,4.8661,4.8674,4.8751,4.8717,4.8823,4.8778,4.8815,4.8839,4.8843,4.8852,4.8812,4.888,4.9,4.9013,4.886,4.8858,4.8857,0,4.8108,4.8226,4.8316,4.8349,4.8433,4.8474,4.851,4.857,4.8614,4.8677,4.8706,4.8776,4.8815,4.8868,4.8899,4.8871,4.9003,4.8971,4.9021,4.902,4.9049,4.9046,4.9176,4.9072,4.9072,4.9072,4.9072,0,4.8212,4.8288,4.8343,4.8398,4.8482,4.8515,4.8597,4.8633,4.8686,4.8747,4.876,4.8817,4.8854,4.8916,4.894,4.9025,4.9042,4.906,4.9065,4.9059,4.9056,4.9083,4.9077,4.9076,4.9075,4.9074,4.9073,0,4.8289,4.8329,4.8428,4.85,4.8519,4.8578,4.8639,4.8692,4.8724,4.8802,4.8822,4.8872,4.8945,4.8982,4.9072,4.9089,4.9184,4.9186,4.9164,4.9166,4.9214,4.9209,4.9365,4.9387,4.9269,4.927,4.9271,0,4.8353,4.8412,4.849,4.8533,4.8571,4.8639,4.8685,4.8719,4.8765,4.884,4.8884,4.8958,4.902,4.9137,4.918,4.925,4.9253,4.9303,4.9263,4.9255,4.9253,4.9249,4.9255,4.931,4.9311,4.9312,4.9312,0,4.8462,4.8479,4.8545,4.8618,4.8673,4.8731,4.8789,4.8823,4.8865,4.8917,4.8993,4.9041,4.9134,4.9208,4.928,4.9316,4.9321,4.9325,4.934,4.9334,4.9319,4.9327,4.9183,4.9321,4.932,4.9319,4.9319,4.9318,4.8535,4.8588,4.8651,4.8724,4.8771,4.8825,4.8878,4.8918,4.8982,4.9062,4.9078,4.9158,4.9218,4.9316,4.9355,4.9417,4.9406,4.9428,4.9434,4.9439,4.9441,4.9309,4.943,4.943,4.943,4.943,4.943,0,4.8644,4.8686,4.8753,4.8834,4.8891,4.8892,4.8956,4.9003,4.9074,4.913,4.9191,4.9278,4.9349,4.9399,4.9471,4.9511,4.9515,4.9529,4.9526,4.9534,4.9447,4.9427,4.9525,4.9525,4.9525,4.9525,4.9525,4.9525,4.8708,4.8797,4.8822,4.8934,4.8974,4.9055,4.9091,4.914,4.9185,4.9282,4.9342,4.9375,4.9428,4.9504,4.9569,4.9581,4.9607,4.9621,4.9633,4.9551,4.9541,4.9531,4.9512,4.9626,4.9627,4.9716,4.9716,4.9717]}]]